Flag for Bosnia-Herzegovina Weather past 2 weeks in Tuzla, Bosnia-Herzegovina

Now
72 °F

Passing clouds.


Feels Like: 76 °F
Forecast: 51 / 81 °F
Wind: 7 mph from East

Location: Tuzla

Current Time: Sep 18, 2014 at 2:05:49 PM

Latest Report: Sep 18, 2014 at 1:30 PM


Visibility: N/A

Pressure: 30.09 "Hg

Humidity: 57%

Dew point: 55 °F

Location of TuzlaLocation

Historic Weather in Tuzla — Graph

°F

Tuzla temperature yesterday

Maximum temperature yesterday: 70 °F (at 4:00 PM)
Minimum temperature yesterday: 59 °F (at 6:00 AM)
Average temperature yesterday: 64 °F

Past Weeks' High & Low Weather Summary

 TemperatureHumidityPressure
High81 °F (Sep 10, 2:00 PM)100% (Sep 3, 1:00 PM)30.12 "Hg (Sep 3, 1:00 PM)
Low50 °F (Sep 18, 6:00 AM)51% (Sep 9, 2:30 PM)29.77 "Hg (Sep 11, 8:00 PM)
Average64 °F93%29.96 "Hg
* Reported Sep 3 1:00 PM — Sep 18 1:00 PM, Tuzla, Weather by CustomWeather, © 2014

Note: Actual official high and low records may vary slightly from our data, if they occured in-between our weather recording intervals... More about our weather records

Advertising

Tuzla weather history for previous 24 hours

 ConditionsComfort  
Time TempWeatherWind HumidityBarometerVisibility
1:00 PM
Sep 18
72 °FPassing clouds.7 mph57%30.09 "HgN/A
12:30 PM70 °FPassing clouds.6 mph60%30.09 "HgN/A
12:00 PM70 °FPassing clouds.5 mph60%30.09 "HgN/A
11:30 AM66 °FPassing clouds.2 mph78%30.09 "HgN/A
11:00 AM64 °FPassing clouds.2 mph83%30.09 "HgN/A
10:30 AM63 °FPassing clouds.2 mph88%30.09 "HgN/A
10:00 AM59 °FPassing clouds.2 mph100%30.09 "HgN/A
9:30 AM55 °FFog.2 mph100%30.12 "Hg3 mi
9:00 AM52 °FFog.1 mph100%30.09 "Hg1 mi
8:30 AM52 °FFog.2 mph100%30.09 "Hg1 mi
8:00 AM50 °FFog.1 mph100%30.09 "Hg1 mi
7:30 AM50 °FFog.1 mph100%30.09 "Hg1 mi
7:00 AM50 °FFog.No wind100%30.09 "Hg0 mi
6:30 AM50 °FFog.1 mph100%30.09 "Hg1 mi
6:00 AM50 °FFog.1 mph100%30.09 "Hg1 mi
9:00 PM
Sep 17
59 °FPassing clouds.5 mph100%30.09 "HgN/A
8:00 PM61 °FPassing clouds.5 mph94%30.07 "HgN/A
7:00 PM63 °FPassing clouds.6 mph83%30.07 "HgN/A
6:00 PM66 °FPassing clouds.8 mph68%30.07 "HgN/A
5:00 PM70 °FScattered clouds.9 mph64%30.04 "HgN/A
4:00 PM70 °FScattered clouds.12 mph64%30.04 "HgN/A
3:00 PM66 °FScattered clouds.5 mph73%30.07 "HgN/A
2:00 PM66 °FScattered clouds.5 mph73%30.07 "HgN/A
Weather by CustomWeather, © 2014

See weather overviewHow to use our weather pages